CAPE
2 2 2 1 2 1 1 0 0 0 0 0 0 0 0 0 0 0 0 0 0 0 0 0 0 0 0 0 55 200 182 108 366 248 342 238 348 360 711 640 622 925 386 756 187
2 2 3 2 1 1 1 1 1 0 0 0 0 0 0 0 0 0 0 0 0 0 0 0 0 0 0 16 27 9 55 39 22 160 283 320 396 579 602 313 159 433 590 531 292
2 2 1 2 2 1 1 1 0 0 0 0 0 0 0 0 0 0 0 0 0 0 0 0 0 0 0 18 25 10 0 29 34 0 29 579 326 630 496 375 287 146 543 383 322
2 3 3 2 2 2 1 1 0 0 0 0 0 0 0 0 0 0 0 0 0 0 0 0 0 0 0 25 13 0 0 0 0 0 68 109 179 686 695 587 560 87 77 435 431
0 0 2 2 2 2 1 1 0 0 0 0 0 0 0 0 0 0 25 122 0 0 0 0 0 0 0 0 1 0 0 3 2 3 9 25 326 172 563 899 448 41 146 596 543
1 0 1 2 2 2 1 2 1 0 0 0 0 0 0 0 0 0 0 0 0 0 0 0 0 0 0 0 0 0 0 0 0 0 1 7 312 454 276 625 479 515 402 554 540
0 0 0 0 2 2 2 1 0 0 0 0 0 0 0 0 0 0 0 0 0 0 0 0 0 0 0 0 0 0 0 1 0 0 0 0 19 188 209 367 639 583 793 622 479
1 0 2 1 2 1 0 0 0 0 0 0 0 0 0 0 0 0 0 0 0 0 0 0 0 0 0 0 0 0 0 7 0 0 0 0 0 236 81 354 423 456 592 604 586
0 0 1 2 3 0 0 0 0 0 0 0 0 0 0 0 0 0 0 0 0 0 0 0 0 0 0 0 0 0 0 9 1 0 0 0 0 301 221 170 312 479 594 653 581
1 1 1 1 1 0 0 0 0 0 0 0 0 0 0 0 0 0 0 0 0 0 0 0 0 0 0 0 0 2 0 8 1 0 0 0 0 106 155 208 197 493 598 664 595
1 1 1 1 1 0 0 0 0 0 0 0 0 0 0 0 0 0 0 0 0 0 0 0 0 0 0 0 0 0 0 0 0 0 0 0 0 0 133 88 90 440 608 605 584
1 2 2 1 0 0 0 0 0 0 0 0 0 0 0 0 0 0 0 0 0 0 0 0 0 0 0 0 0 0 0 0 0 0 0 0 0 0 0 61 25 114 678 628 610
5 2 3 1 0 0 0 0 0 0 0 0 0 0 0 0 0 0 0 0 0 0 0 0 0 0 0 0 0 0 0 0 0 0 0 0 0 0 0 0 32 83 111 699 638
1 0 1 0 0 0 0 0 0 0 0 0 0 0 0 0 0 0 0 0 0 0 0 0 0 0 0 0 0 0 0 0 0 0 0 0 0 0 0 0 0 0 60 357 658
1 0 0 1 0 0 0 0 0 0 43 0 0 0 0 0 0 0 0 0 0 0 0 0 0 0 0 0 0 0 0 0 0 0 0 0 0 0 0 0 0 1 0 24 728
1 1 0 0 0 0 0 0 0 0 29 0 0 0 0 0 0 0 0 0 0 0 0 0 0 0 0 0 0 0 0 0 0 0 1 0 0 0 0 0 5 0 0 8 699
2 0 1 0 0 0 0 0 0 0 67 0 0 0 0 0 0 0 0 0 0 0 0 0 0 0 0 0 0 0 0 0 5 0 0 0 1 21 0 0 5 0 49 174 349
1 0 0 0 0 0 0 0 0 14 2 0 0 0 0 0 0 0 0 0 0 0 0 0 0 0 0 0 0 0 0 0 1 15 14 3 3 0 0 0 0 0 21 38 123
0 0 0 0 0 0 0 0 0 11 0 0 0 0 0 0 0 0 0 0 0 0 0 0 0 0 0 0 0 0 0 0 0 0 18 13 23 0 0 0 39 403 740 780 901
0 0 0 0 0 0 0 0 0 0 25 0 0 0 0 0 0 0 0 2 0 0 0 0 0 0 0 0 0 0 0 0 0 0 16 26 24 0 0 26 90 505 627 258 1184
0 4 0 0 0 0 0 0 0 0 7 7 0 57 13 0 3 35 6 0 0 0 0 0 0 0 0 0 0 0 0 0 0 0 0 30 22 102 206 364 367 625 429 67 1033
0 73 0 0 0 0 0 0 0 39 0 0 0 25 41 0 35 50 0 0 0 0 0 0 0 0 0 0 0 0 0 0 0 0 0 11 2 76 217 197 69 1200 1226 1167 1162
18 253 0 0 0 0 0 0 0 0 0 0 0 1 3 6 28 0 0 0 0 0 0 0 0 0 0 0 0 0 0 0 0 0 18 2 17 3 11 206 236 696 515 678 951
1 138 0 0 0 0 0 36 4 0 0 0 2 0 0 0 0 0 0 0 0 0 0 0 0 0 0 0 0 0 0 0 0 0 0 0 220 18 326 790 948 580 216 258 849
19 197 1 0 0 0 0 0 6 0 0 0 0 0 0 0 0 0 0 0 0 0 0 0 0 0 0 0 0 0 0 0 0 0 0 0 441 236 328 302 261 783 564 419 200
0 0 0 1 18 2 0 0 0 1 0 0 0 0 0 0 0 0 0 0 0 0 0 0 0 0 0 0 0 0 0 0 0 0 0 0 156 79 90 73 0 298 248 69 0
0 0 0 0 18 0 0 2 0 1 0 0 0 0 0 0 0 0 0 0 0 0 0 0 0 0 0 0 0 0 0 0 0 0 0 1 35 0 0 0 0 0 120 1 0
CIN
0 0 0 0 0 0 0 0 0 0 0 0 0 0 0 0 0 0 0 0 0 0 0 0 0 0 0 0 -43 -92 -69 -59 -15 -19 -23 -17 -11 -4 -93 -122 -145 -90 -51 -73 -59
0 0 0 0 0 0 0 0 0 0 0 0 0 0 0 0 0 0 0 0 0 0 0 0 0 0 0 -12 -42 -41 -54 -20 -13 -13 -22 -15 -10 -4 -38 -185 -194 -195 -110 -144 -36
0 0 0 0 0 0 0 0 0 0 0 0 0 0 0 0 0 0 0 0 0 0 0 0 0 0 0 -7 -25 -25 -5 -11 -32 0 -8 -7 -10 -13 -75 -69 -194 -204 -140 -65 -25
0 0 0 0 0 0 0 0 0 0 0 0 0 0 0 0 0 0 0 0 0 0 0 0 0 0 0 -16 -26 0 0 0 0 0 -4 -26 -13 -50 -39 -56 -109 -275 -256 -73 -37
0 0 0 0 0 0 0 0 0 0 0 0 0 0 0 0 0 0 -189 -344 0 0 0 0 0 0 -1 0 -6 0 0 -4 -8 -8 -16 -15 -11 -15 -12 -44 -151 -251 -171 -74 -27
0 0 0 0 0 0 0 0 0 0 0 0 0 0 0 0 0 0 0 0 0 0 0 0 0 0 0 0 0 0 0 0 0 0 -2 -7 -27 -21 -20 -118 -153 -150 -153 -130 -21
0 0 0 0 0 0 0 0 0 0 0 0 0 0 0 0 0 0 0 0 0 0 0 0 0 0 0 0 0 0 0 -28 0 0 0 0 -56 -25 -29 -31 -64 -50 -33 -18 -24
0 0 0 0 0 0 0 0 0 0 0 0 0 0 0 0 0 0 0 0 0 0 0 0 0 0 0 0 0 0 0 -13 0 0 0 0 0 -56 -54 -44 -53 -39 -32 -63 -46
0 0 0 0 0 0 0 0 0 0 0 0 0 0 0 0 0 0 0 0 0 0 0 0 0 0 0 0 0 0 0 -6 -16 0 0 0 0 -35 -67 -54 -58 -63 -51 -67 -67
0 0 0 0 0 0 0 0 0 0 0 0 0 0 0 0 0 0 0 0 0 0 0 0 0 0 0 0 0 -9 0 -18 -8 0 0 0 0 -52 -53 -50 -49 -77 -94 -88 -108
0 0 0 0 -1 0 0 0 0 0 0 0 0 0 0 0 0 0 0 0 0 0 0 0 0 0 0 0 0 0 0 0 0 0 0 0 0 0 -76 -80 -67 -88 -118 -131 -141
0 0 0 0 -1 0 0 0 0 0 0 0 0 0 0 0 0 0 0 0 0 0 0 0 0 0 0 0 0 0 0 0 0 0 0 0 0 0 0 -75 -63 -82 -139 -135 -175
0 0 0 0 0 0 0 0 0 0 0 0 0 0 0 0 0 0 0 0 0 0 0 0 0 0 0 0 0 0 0 0 0 0 0 0 0 0 0 0 -91 -78 -109 -106 -154
0 0 0 0 0 0 0 0 0 0 0 0 0 0 0 0 0 0 0 0 0 0 0 0 0 0 0 0 0 0 0 0 0 0 0 0 0 0 0 0 0 0 -84 -110 -110
0 0 0 -1 0 0 0 0 0 0 -216 0 0 0 0 0 0 0 0 0 0 0 0 0 0 0 0 0 0 0 0 0 0 0 0 0 0 0 0 0 0 -4 0 -119 -110
0 0 0 0 0 0 0 0 0 0 -199 0 0 0 0 0 0 0 0 0 0 0 0 0 0 0 0 0 0 0 0 0 0 0 -43 0 0 0 0 0 -43 0 0 -12 -80
0 0 0 0 0 0 0 0 0 0 -126 0 0 0 0 0 0 0 0 0 0 0 0 0 0 0 0 0 0 0 0 0 -15 0 -25 0 -27 -79 0 0 -27 0 -49 -42 -84
0 0 0 0 0 0 0 0 0 -85 -12 0 0 0 0 0 0 0 0 0 0 0 0 0 0 0 0 0 0 0 0 0 -1 -58 -170 -83 -34 0 0 0 0 0 -28 -33 -44
0 0 0 0 0 0 0 0 0 -193 -10 0 0 0 0 0 0 0 0 0 0 0 0 0 -8 0 0 0 0 0 0 0 0 0 -21 -36 -25 0 0 -7 -124 -111 -158 -104 -114
0 0 0 0 0 0 0 0 0 0 -53 0 0 0 0 0 0 0 0 -7 0 0 0 0 0 0 0 0 0 0 0 0 0 0 -17 -34 -16 0 0 -147 -271 -301 -253 -172 -164
0 -91 0 0 0 0 0 0 0 0 -27 -36 0 -70 -18 0 -38 -30 -21 0 0 0 0 0 0 0 0 0 0 0 0 0 0 0 0 -21 -58 -208 -294 -276 -206 -163 -244 -390 -151
0 -200 0 0 0 0 0 0 0 -70 0 0 0 -48 -91 -21 -51 -18 0 0 0 0 0 0 0 0 0 0 0 0 0 -12 -3 -3 0 -51 -34 -221 -257 -372 -480 -281 -37 -77 -154
-30 -137 0 0 0 0 0 0 0 0 0 0 0 -21 -91 -82 -61 -4 0 0 0 0 0 0 0 0 0 0 0 0 0 0 0 0 -30 -4 -92 -25 -59 -225 -189 -199 -340 -379 -426
-20 -76 0 0 0 0 0 -68 -4 0 0 -6 -160 0 0 0 0 0 0 0 0 0 0 0 0 0 0 0 0 0 0 0 0 0 0 0 -72 -54 -95 -132 -146 -229 -362 -421 -269
-263 -97 -22 0 0 0 0 0 -3 0 0 0 0 0 0 0 0 0 0 0 0 0 0 0 0 0 0 0 0 0 0 0 0 0 0 0 -140 -163 -137 -148 -161 -71 -92 -117 -185
0 0 0 -4 -176 -16 0 0 -5 -24 0 0 0 0 0 0 0 0 0 0 0 0 0 0 0 0 0 0 0 0 0 0 0 0 0 -2 -116 -163 -224 -292 0 -107 -103 -178 -29
0 0 0 0 -38 0 0 -3 0 -41 -3 0 0 0 0 0 0 0 0 0 0 0 0 0 0 0 0 0 0 0 0 0 0 0 0 -25 -168 0 0 0 0 0 -154 -95 0
Wind_Speed
12 12 12 12 12 13 13 13 14 14 15 15 17 16 16 17 21 4 5 2 4 5 6 10 15 18 16 8 4 3 5 2 4 5 5 3 3 9 17 15 10 10 8 8 20
12 12 12 12 13 13 13 14 15 15 15 16 16 16 16 17 6 8 4 3 5 3 5 10 19 19 5 7 4 4 4 2 8 6 8 5 2 6 11 15 11 18 12 19 13
13 13 13 13 13 13 14 14 15 15 16 16 17 16 15 14 5 4 6 4 6 3 6 13 15 19 17 4 6 4 4 6 9 5 1 6 2 6 7 3 12 17 18 9 21
13 13 14 13 13 14 14 14 15 15 16 16 17 17 18 4 3 3 8 8 4 6 6 10 12 12 7 7 7 8 5 2 1 3 1 6 2 9 7 6 13 18 16 10 24
14 14 14 14 14 14 15 15 15 15 16 15 16 15 8 3 10 6 7 6 3 4 8 14 16 8 9 6 8 8 3 4 7 8 6 8 6 3 7 17 17 13 13 8 15
14 15 15 15 15 15 15 14 15 16 16 15 14 17 3 5 4 12 9 7 7 7 10 12 10 10 7 10 4 3 2 2 3 2 3 5 7 5 5 23 20 17 17 14 16
15 15 15 15 15 15 16 15 17 17 16 14 12 6 5 14 7 1 9 6 8 10 10 8 11 8 10 9 3 7 6 5 3 1 2 6 2 5 9 12 20 17 18 12 10
15 15 15 15 15 15 15 16 18 18 15 13 7 4 9 9 14 10 8 8 8 8 7 8 10 9 7 10 7 8 6 5 6 5 4 7 5 6 8 11 11 13 12 13 12
16 15 15 15 14 14 15 17 19 18 13 10 4 4 9 2 7 7 8 8 8 7 8 9 3 7 11 8 8 7 4 3 5 7 4 3 6 9 10 9 9 14 10 11 8
16 15 15 15 13 14 17 18 12 14 6 8 8 6 8 8 6 8 11 9 7 8 7 5 4 6 7 3 6 4 4 9 3 7 5 2 9 10 13 10 10 15 14 12 11
16 15 14 14 11 11 11 1 0 1 5 11 10 6 6 4 9 8 10 6 6 5 5 8 4 9 14 11 2 6 4 5 5 5 5 7 8 7 14 12 9 11 15 15 14
16 14 13 12 9 7 4 5 10 8 7 20 17 16 15 8 5 7 8 5 7 8 8 5 11 15 12 6 6 6 6 7 8 3 4 5 9 10 9 11 11 11 18 17 14
14 13 11 10 8 4 6 11 11 17 3 8 15 9 5 3 9 11 12 9 8 8 10 9 12 9 3 8 6 6 8 7 7 3 7 5 10 8 5 5 13 9 12 19 22
15 13 10 6 3 4 6 11 15 12 4 4 8 8 8 7 8 12 10 8 7 10 9 8 11 6 5 3 5 8 7 5 2 3 5 3 5 3 7 7 7 9 11 16 19
15 12 8 6 8 5 6 10 11 2 3 13 10 6 9 8 2 7 10 5 10 11 4 13 7 5 3 6 6 9 6 5 3 6 6 12 3 7 7 6 7 5 12 11 21
14 9 4 4 5 13 13 6 2 1 7 10 7 7 6 7 10 6 4 2 7 9 12 8 7 3 6 7 4 5 6 8 4 7 6 14 4 5 5 6 4 1 6 10 19
11 8 7 8 4 10 12 2 1 5 9 12 8 9 9 10 12 8 7 7 7 4 7 10 12 8 4 3 9 4 3 4 5 5 10 14 6 8 6 4 7 6 7 8 11
9 5 12 8 8 11 6 0 4 11 6 10 12 11 11 11 9 8 9 8 12 11 6 4 5 11 8 7 7 8 8 6 1 5 9 2 3 4 5 7 5 7 7 8 8
6 4 5 8 13 4 2 3 4 5 14 8 15 11 10 10 8 8 11 11 10 3 5 7 4 7 6 1 3 7 3 6 2 4 5 4 7 8 17 11 16 21 29 16 20
3 3 6 7 11 4 1 4 6 6 11 13 2 9 5 3 6 7 7 2 7 7 6 7 6 6 8 3 4 4 4 8 6 2 5 2 3 2 6 11 14 18 12 20 19
3 3 7 13 9 2 4 6 11 18 6 7 12 8 10 7 10 2 8 13 9 8 8 9 6 11 6 3 4 5 3 2 3 4 2 1 4 5 6 13 15 14 7 9 16
4 4 8 8 3 4 6 6 5 8 3 5 6 6 9 15 10 1 7 6 8 9 5 5 2 6 10 12 7 7 4 7 6 7 3 3 4 3 7 10 17 16 0 9 13
4 4 6 6 4 7 9 17 12 6 6 4 4 6 8 8 5 11 6 7 7 5 3 5 4 5 13 10 12 7 9 8 6 5 2 4 5 6 3 8 5 13 14 13 14
3 2 2 3 6 11 13 12 5 3 6 8 6 8 8 7 2 1 5 5 9 6 6 3 1 5 6 8 5 9 12 9 5 4 3 4 5 7 10 13 11 10 11 9 6
3 4 5 4 6 12 14 8 5 5 4 6 8 4 7 5 9 7 11 9 9 6 4 3 2 5 8 10 8 9 11 9 5 5 2 4 13 7 9 11 9 7 8 8 8
5 5 6 7 11 2 4 5 10 10 4 6 7 8 8 8 7 8 8 9 4 6 3 3 3 8 7 11 11 9 9 6 5 5 5 7 10 8 7 8 9 7 7 8 7
5 6 3 7 8 4 6 3 7 9 8 8 9 7 12 10 8 6 4 4 6 4 2 2 2 4 5 8 10 8 5 7 7 8 7 7 6 8 7 8 7 8 7 7 6
Wind_Direction
343 342 341 337 335 333 331 328 325 327 324 323 323 323 325 324 309 188 250 230 228 317 311 275 273 269 268 249 105 125 67 347 148 100 120 155 78 74 87 95 76 120 234 287 127
341 339 338 335 332 331 328 325 324 325 323 322 322 322 325 331 293 266 233 191 272 335 304 308 311 323 256 184 136 84 117 71 69 95 122 114 180 110 114 123 108 134 209 247 161
339 337 335 333 330 328 325 322 321 321 321 320 321 321 320 321 290 230 173 215 269 275 271 292 293 294 290 214 154 154 56 49 75 55 319 129 108 109 138 138 165 172 195 217 149
339 333 330 329 327 324 321 319 318 318 317 318 320 321 315 255 338 89 185 203 231 299 284 279 279 287 277 178 123 100 100 73 181 118 62 94 226 144 164 167 152 164 200 181 153
335 330 327 326 324 321 318 317 316 314 313 315 320 325 342 244 250 163 192 234 221 251 266 285 301 335 358 355 95 89 148 187 185 187 147 167 164 96 123 126 153 156 180 200 174
333 328 324 322 320 317 315 315 312 310 309 313 320 316 239 253 236 165 190 182 247 223 270 279 290 319 312 333 35 116 285 119 19 3 127 77 128 102 134 137 155 163 187 216 170
330 326 322 319 316 314 312 310 308 306 305 307 314 303 269 240 303 143 189 224 217 242 266 304 348 3 325 315 41 267 191 236 132 160 114 123 96 170 157 138 164 175 175 165 155
328 324 320 315 313 312 308 304 302 299 298 299 293 275 254 246 232 254 257 244 237 251 270 307 6 335 294 294 302 259 284 165 176 211 167 149 245 187 176 154 166 156 163 155 162
326 322 318 313 310 308 305 300 296 291 283 271 257 228 264 193 210 224 263 238 191 243 284 271 44 273 295 279 288 254 230 281 153 170 184 14 287 199 185 172 181 160 154 153 163
326 321 317 312 310 309 306 286 286 310 227 224 257 275 268 239 182 189 239 247 230 202 228 211 230 239 277 256 251 44 100 254 123 200 124 312 292 133 185 180 192 166 155 159 167
325 320 315 312 309 319 332 285 243 282 251 203 195 235 163 179 134 200 206 227 281 265 239 221 192 241 250 252 283 32 339 321 296 182 143 215 249 246 184 192 189 161 162 166 168
324 317 312 310 307 321 292 251 260 329 280 221 250 240 271 137 169 203 165 194 212 240 238 275 222 242 255 301 53 35 315 293 276 199 153 265 271 269 196 202 178 175 171 170 169
320 316 312 308 328 278 234 244 299 324 274 245 200 241 214 223 251 191 163 209 252 245 249 225 250 247 19 331 1 285 228 253 256 354 327 293 278 258 175 97 169 188 173 172 170
320 314 306 306 301 230 228 240 241 252 309 183 193 232 205 207 252 219 173 191 232 244 267 240 267 263 178 218 233 267 271 204 315 36 260 12 290 138 152 205 194 196 187 171 167
317 308 289 237 318 254 314 220 210 180 305 142 181 197 167 181 120 161 172 180 257 277 276 264 245 241 288 265 252 244 357 2 321 301 336 289 134 248 171 228 232 223 187 181 165
316 300 261 203 222 246 295 291 11 289 243 168 133 177 166 222 256 134 148 228 269 275 290 250 286 286 214 248 210 292 320 315 333 39 337 273 125 250 184 183 128 72 178 161 156
307 272 217 303 226 328 263 307 258 234 157 147 165 158 202 192 241 147 174 197 227 235 254 258 234 224 200 307 299 196 275 318 57 45 230 275 310 211 164 113 148 130 89 118 139
316 209 225 245 295 330 310 235 268 327 294 178 145 164 199 196 208 168 190 220 236 235 274 269 210 186 187 191 223 225 193 165 221 198 242 295 9 223 136 147 124 118 110 134 153
321 189 245 234 228 233 304 213 236 21 293 148 153 167 211 221 158 175 206 217 202 75 57 11 5 109 151 182 172 307 351 245 2 299 51 64 343 33 58 42 46 53 20 19 47
269 231 218 205 169 224 245 242 273 238 294 344 225 183 221 200 151 190 199 129 88 66 54 331 337 331 155 164 276 226 263 6 349 348 355 118 183 233 59 65 46 47 24 354 17
245 248 151 145 171 243 230 247 291 294 22 318 347 345 326 155 289 281 44 19 40 52 42 26 19 303 344 201 269 324 229 258 116 115 162 81 109 170 79 62 55 36 63 72 359
276 273 147 167 155 216 237 254 259 302 126 290 310 320 350 161 244 98 95 78 38 33 27 1 249 303 288 297 304 355 298 175 138 285 229 153 300 35 124 100 101 137 147 70 37
265 277 162 181 220 240 249 255 262 346 355 281 321 344 43 14 46 97 102 100 67 67 83 331 352 357 335 347 6 10 347 358 354 45 33 88 236 205 220 144 116 79 58 48 36
282 251 154 197 259 278 284 295 189 220 324 1 14 13 11 345 354 6 102 125 101 109 125 78 317 195 223 257 337 344 341 348 29 52 323 134 217 10 28 71 72 89 96 101 71
230 318 15 224 239 243 269 305 210 158 200 22 354 355 316 16 0 27 13 97 54 144 124 111 245 309 326 331 330 309 301 301 300 277 65 318 107 69 76 74 76 108 93 74 62
5 3 334 280 322 282 17 317 325 21 92 103 18 317 60 57 47 26 27 30 76 220 127 345 304 13 330 310 304 308 300 318 338 313 307 87 92 105 77 71 55 69 90 84 74
5 325 275 288 314 307 307 259 21 37 46 58 40 18 45 18 354 347 341 323 306 328 308 160 75 40 287 319 339 331 288 34 74 53 63 64 116 87 62 65 56 17 86 78 78